This is the latest recevied weather packets stored in our database for station/object VE3VGJ. If no packets are shown the sender has not sent any weather packets the latest 10 day(s).
| Time | Temp. | Humidity | Pressure | Rain* | Wind** | Luminosity | Snow |
|---|---|---|---|---|---|---|---|
| 1778054024 | 6.11° C | 92% | 1008.4 hPa | 1.78 mm | - | 0 W/m² | - |
| 1778053721 | 6.11° C | 92% | 1008.5 hPa | 0 mm | - | 0 W/m² | - |
| 1778053418 | 6.11° C | 91% | 1008.6 hPa | 1.27 mm | - | 0 W/m² | - |
| 1778053116 | 6.11° C | 91% | 1008.6 hPa | 1.27 mm | - | 0 W/m² | - |
| 1778052813 | 6.67° C | 91% | 1008.7 hPa | 0 mm | - | 0 W/m² | - |
| 1778052510 | 6.67° C | 91% | 1008.7 hPa | 1.78 mm | - | 0 W/m² | - |
| 1778052208 | 6.67° C | 91% | 1008.7 hPa | 1.78 mm | - | 0 W/m² | - |
| 1778051906 | 6.67° C | 90% | 1008.7 hPa | 1.27 mm | - | 0 W/m² | - |
| 1778051604 | 6.67° C | 90% | 1009 hPa | 1.27 mm | - | 0 W/m² | - |
| 1778051300 | 6.67° C | 90% | 1008.9 hPa | 1.78 mm | - | 0 W/m² | - |
| 1778050997 | 6.67° C | 90% | 1008.7 hPa | 1.78 mm | - | 0 W/m² | - |
| 1778050694 | 6.67° C | 90% | 1009.1 hPa | 1.78 mm | - | 0 W/m² | - |
| 1778050392 | 7.22° C | 90% | 1008.8 hPa | 1.78 mm | - | 0 W/m² | - |
| 1778050088 | 7.22° C | 91% | 1009 hPa | 0 mm | - | 0 W/m² | - |
| 1778049784 | 7.22° C | 91% | 1009.1 hPa | 1.27 mm | - | 0 W/m² | - |
| 1778049481 | 7.22° C | 92% | 1009 hPa | 1.27 mm | - | 0 W/m² | - |
| 1778049179 | 7.22° C | 92% | 1009 hPa | 1.78 mm | - | 0 W/m² | - |
| 1778048877 | 7.22° C | 91% | 1009.3 hPa | 1.78 mm | - | 0 W/m² | - |
| 1778048574 | 7.22° C | 91% | 1009.1 hPa | 0 mm | - | 0 W/m² | - |
| 1778048270 | 7.22° C | 90% | 1009.2 hPa | 1.27 mm | - | 0 W/m² | - |
| 1778047967 | 7.78° C | 90% | 1009.3 hPa | 1.27 mm | - | 0 W/m² | - |
| 1778047666 | 7.78° C | 89% | 1009.4 hPa | 1.78 mm | - | 0 W/m² | - |
| 1778047363 | 7.78° C | 88% | 1009.7 hPa | 1.78 mm | - | 0 W/m² | - |
| 1778047060 | 7.78° C | 88% | 1009.8 hPa | 0 mm | - | 0 W/m² | - |
| 1778046756 | 7.78° C | 88% | 1009.8 hPa | 0 mm | - | 0 W/m² | - |
* Rain latest hour (hover to see other rain measurements)
** Current wind speed in m/s (hover to see current wind gust speed)